OpenBCM V1.08-5-g2f4a (Linux)

Packet Radio Mailbox

IZ3LSV

[San Dona' di P. JN]

 Login: GUEST





  
CX2SA  > KEP      18.01.20 02:04l 85 Lines 3571 Bytes #999 (0) @ ARL
BID : ARLK005
Read: GUEST
Subj: ARLK005 Keplerian data
Path: IZ3LSV<IQ2LB<IQ5KG<I0OJJ<N6RME<CX2SA
Sent: 200117/2341Z @:CX2SA.SAL.URY.SOAM #:23166 [Salto] FBB7.00e $:ARLK005
From: CX2SA@CX2SA.SAL.URY.SOAM
To  : KEP@ARL


ZCZC SK05
QST de W1AW
Keplerian Bulletin 5  ARLK005
From ARRL Headquarters
Newington, CT  January 17, 2020
To all radio amateurs

SB KEP ARL ARLK005
ARLK005 Keplerian data

Special thanks to Space-Track.org for the following Keplerian data.

Decode 2-line elsets with the following key:
1 AAAAAU 00  0  0 BBBBB.BBBBBBBB  .CCCCCCCC  00000-0  00000-0 0  DDDZ
2 AAAAA EEE.EEEE FFF.FFFF GGGGGGG HHH.HHHH III.IIII JJ.JJJJJJJJKKKKKZ
KEY: A-CATALOGNUM B-EPOCHTIME C-DECAY D-ELSETNUM E-INCLINATION F-RAAN
G-ECCENTRICITY H-ARGPERIGEE I-MNANOM J-MNMOTION K-ORBITNUM Z-CHECKSUM

AO-07
1  7530U 74089B   20017.46856954 -.00000019  00000-0  16460-3 0  9991
2  7530 101.7783 348.1947 0012025 297.9155 175.1590 12.53641699 67184
FO-29
1 24278U 96046B   20017.21393672 -.00000044 +00000-0 -10050-4 0  9991
2 24278 098.5654 147.1272 0351137 049.2932 313.8155 13.53095067156293
ISS
1 25544U 98067A   20017.89354213  .00001021  00000-0  26247-4 0  9994
2 25544  51.6456  17.0608 0005048 142.0845 294.3151 15.49571854208567
SO-50
1 27607U 02058C   20017.08503029 -.00000028  00000-0  16760-4 0  9999
2 27607  64.5555 120.2238 0066352 214.2101 145.4719 14.75602993918370
CO-55
1 27844U 03031E   20017.68323640  .00000035  00000-0  35212-4 0  9999
2 27844  98.6835  27.6982 0010656 131.0910 229.1190 14.22216219858569
RS-22
1 27939U 03042A   20017.88251788  .00000020  00000-0  12199-4 0  9994
2 27939  98.0673 154.9385 0014416 112.1218 248.1523 14.66830565871793
RS-30
1 32953U 08025A   20017.84625493  .00000037  00000-0  19437-3 0  9995
2 32953  82.5034  12.1966 0019989  27.6957 332.5182 12.43093802528790
KKS-1
1 33499U 09002H   20017.20934913 +.00000030 +00000-0 +12389-4 0  9990
2 33499 098.3317 227.5185 0007966 247.3617 112.6749 14.75496328590136
AO-71
1 37854U 11061E   20017.00288666  .00000435  00000-0  30035-4 0  9999
2 37854 101.7138  29.5660 0159412 155.0385 205.8645 15.06923327448966
AO-73
1 39444U 13066AE  20017.45678270  .00000227  00000-0  34074-4 0  9992
2 39444  97.5575  26.1101 0059141  50.2724 310.3681 14.82045900331445
UKUBE 1
1 40074U 14037F   20017.81566857  .00000260  00000-0  38243-4 0  9998
2 40074  98.4503 197.1457 0003108 242.9186 117.1721 14.84175966299263
XW-2A
1 40903U 15049E   20017.80759426  .00001376  00000-0  33595-4 0  9992
2 40903  97.3109  66.5079 0015345  93.7478  36.5104 15.42531673243090
XW-2F
1 40910U 15049M   20017.86838145  .00000871  00000-0  46523-4 0  9996
2 40910  97.4654  23.5296 0015061 162.0300 315.8210 15.17654853239349
XW-2B
1 40911U 15049N   20017.82850873  .00000355  00000-0  21900-4 0  9994
2 40911  97.4735  21.8375 0013932 171.2665 312.2052 15.16034398239193
IO-86
1 40931U 15052B   20015.55554689  .00000603  00000-0 -52684-5 0  9995
2 40931   5.9989 352.8787 0014085 259.9842  99.8649 14.76623612232477
CAS-4B
1 42759U 17034B   20017.79189917  .00000108  00000-0  20063-4 0  9997
2 42759  43.0173 140.2640 0010374 160.0188 329.0057 15.09722903143049
CAS-4A
1 42761U 17034D   20017.81145991  .00000107  00000-0  19986-4 0  9998
2 42761  43.0166 139.5552 0010906 162.3885 333.3441 15.09800886143049
AO-91
1 43017U 17073E   20017.76052687  .00000183  00000-0  19848-4 0  9990
2 43017  97.7271 295.8256 0257347 184.2093 175.6957 14.78772746116744
AO-92
1 43137U 18004AC  20017.74418506  .00000667  00000-0  30655-4 0  9998
2 43137  97.4646  89.8201 0008128 220.9095 139.1533 15.23828641111930

Keplerian bulletins are transmitted twice weekly from W1AW.  The
next scheduled transmission of these data will be Tuesday, January
21, 2020, at 2230z on Baudot and BPSK31.
NNNN


Read previous mail | Read next mail


 14.10.2025 04:58:36lGo back Go up